Location: ????????
(54.9045°N, 39.1041°E)
Time: 00:28:04
(UTC+00:00)

ISS - Visible Passes

Search period start: 20 June 2024 00:00
Search period end: 30 June 2024 00:00
Orbit: 411 x 425 km, 51.6° (Epoch: 19 June)

Date Brightness Start Highest point End Pass type
(mag) Time Alt. Az. Time Alt. Az. Time Alt. Az.
27 Jun -1.6 23:29:44 10° S 23:31:39 15° SE 23:33:34 10° ESE visible
28 Jun -1.4 22:43:10 10° SSE 22:43:42 10° SE 22:44:15 10° SE visible
29 Jun -2.4 23:28:57 11° SSW 23:31:36 24° SSE 23:34:23 10° E visible
